+ View the NASA Portal
+ Center for Near-Earth Object Studies
IMPORTANT:
The SSD Announcement email list is now available. Major changes are coming in the near future, including possible hostname and/or URL changes. To be notified of such changes, subscribe to this email list.
Please visit
this page
for more details.
Don't show this message again
JPL Small-Body Database Browser
Search:
[
help
]
437275 (2012 XL150)
Classification:
Main-belt Asteroid
SPK-ID:
2437275
[
Ephemeris
|
Orbit Diagram
|
Orbital Elements
|
Mission Design
|
Physical Parameters
|
Discovery Circumstances
]
[ show orbit diagram ]
Orbital Elements at Epoch 2458600.5 (2019-Apr-27.0) TDB
Reference:
JPL 8
(heliocentric ecliptic J2000)
Element
Value
Uncertainty (1-sigma)
Units
e
.06088383338385515
1.786e-07
a
3.129964770978083
6.1418e-08
au
q
2.939400517364517
5.3378e-07
au
i
27.64087222526808
1.5044e-05
deg
node
66.5704888658248
1.8279e-05
deg
peri
14.45759634696764
0.00012896
deg
M
38.9025056814781
0.00011258
deg
t
p
2458381.933964386891
(2018-Sep-20.43396439)
0.00063468
TDB
period
2022.58881381467
5.54
5.9533e-05
1.63e-07
d
yr
n
.1779897117699509
5.2389e-09
deg/d
Q
3.320529024591649
6.5157e-08
au
Orbit Determination Parameters
# obs. used (total)
69
data-arc span
6249 days (17.11 yr)
first obs. used
2001-12-15
last obs. used
2019-01-24
planetary ephem.
DE431
SB-pert. ephem.
SB431-N16
condition code
0
norm. resid. RMS
.57723
source
ORB
producer
Otto Matic
solution date
2019-Jul-14 14:55:15
Additional Information
Earth MOID
= 1.95728 au
Jupiter MOID
= 2.02326 au
T_jup
= 3.034
[ show covariance matrix ]
[
Ephemeris
|
Orbit Diagram
|
Orbital Elements
|
Mission Design
|
Physical Parameters
|
Discovery Circumstances
]
Physical Parameter Table
Parameter
Symbol
Value
Units
Sigma
Reference
Notes
absolute magnitude
H
15.7
n/a
MPO247364
437275 (2012 XL150)
Discovered 2001-Dec-15 by LINEAR at Socorro
Reference:
Last Updated:
2015-06-04
Alternate Designations
2012 XL150
= 2001 XD224
[
Ephemeris
|
Orbit Diagram
|
Orbital Elements
|
Mission Design
|
Physical Parameters
|
Discovery Circumstances
]
2019-Dec-14 08:29 UT
(server date/time)
Site Manager:
Ryan S. Park
Webmaster
:
Alan B. Chamberlin